Regional Weather Roundup
Issued by NWS Upton, NY

Current Version | Previous Version | Graphics & Text | Print | Product List | Glossary Off
Versions: 1 2 3 4 5 6 7 8 9 10 11 12 13 14 15 16 17 18 19 20 21 22 23 24 25 26 27 28 29 30 31 32 33 34 35 36 37 38 39 40 41 42 43 44 45 46 47 48 49 50

000
ASUS41 KOKX 221505
RWROKX

REGIONAL WEATHER ROUNDUP
NATIONAL WEATHER SERVICE NEW YORK NY
1100 AM EDT FRI AUG 22 2014

NOTE: "FAIR" INDICATES FEW OR NO CLOUDS BELOW 12,000 FEET WITH NO
SIGNIFICANT WEATHER AND/OR OBSTRUCTIONS TO VISIBILITY.

NYZ071-072-176-178-NJZ106-104-221600-
NEW YORK CITY METRO AREA


CITY           SKY/WX    TMP DP  RH WIND       PRES   REMARKS
CENTRAL PARK   CLOUDY    72  62  71 E10       30.08S
LAGUARDIA APRT CLOUDY    72  60  66 NE10      30.05S
KENNEDY INTL   PTSUNNY   74  61  63 E12       30.06S
NEWARK/LIBERTY CLOUDY    72  63  73 SE5       30.05S
BRNX BOT. GARD   N/A     72  59  64 SE3       30.08F
TETERBORO      CLOUDY    71  58  63 E5        30.05R
$$

NYZ177-179-078>081-221600-
LONG ISLAND NEW YORK

CITY           SKY/WX    TMP DP  RH WIND       PRES   REMARKS
FARMINGDALE    PTSUNNY   73  61  65 SE10      30.06R
ISLIP          CLOUDY    73  60  63 E7        30.05R
SHIRLEY        CLOUDY    73  62  68 VRB5      30.07R
WESTHAMPTON    CLOUDY    73  63  70 E6        30.07S
MONTAUK POINT    N/A     69  63  81 VRB3      30.08R
$$

NYZ052-065-067-221600-
HUDSON VALLEY

CITY           SKY/WX    TMP DP  RH WIND       PRES   REMARKS
WHITE PLAINS   PTSUNNY   68  62  81 E6        30.07R
NEWBURGH       PTSUNNY   68  64  88 SE6       30.08S
MONTGOMERY     CLOUDY    68  63  84 S5        30.06S
POUGHKEEPSIE   CLOUDY    69  60  73 SE7       30.06R
ALBANY         CLOUDY    67  61  81 SE5       30.07R
$$

NJZ001-105-106-008-010-013-015-019>022-104-221600-
NEW JERSEY

CITY           SKY/WX    TMP DP  RH WIND       PRES   REMARKS
NEWARK/LIBERTY CLOUDY    72  63  73 SE5       30.05S
TETERBORO      CLOUDY    71  58  63 E5        30.05R
CALDWELL       CLOUDY    69  62  78 E7        30.06S
MORRISTOWN     CLOUDY    72  68  88 E3        30.06S
SOMERVILLE     CLOUDY    72  66  81 VRB3      30.03S
LINDEN         CLOUDY    75  65  72 SE7       30.07S
SUSSEX         CLOUDY    70  64  81 CALM      30.06S
ANDOVER          N/A     67  65  93 CALM      30.06F
TRENTON        CLOUDY    72  66  81 E7        30.04S
MILLVILLE      PTSUNNY   77  69  76 NE9       30.01S
ATLANTIC CITY  CLOUDY    75  67  76 E9        30.02R
WRIGHTSTOWN    CLOUDY    71  67  88 VRB3      30.01F
TOMS RIVER     CLOUDY    72  66  83 E3        30.04S
BELMAR         CLOUDY    72  61  68 E9        30.05S
$$

PAZ047>061-062-071-221600-
EASTERN PENNSYLVANIA

CITY           SKY/WX    TMP DP  RH WIND       PRES   REMARKS
PHILADELPHIA   CLOUDY    74  67  78 E8        30.03S
ALLENTOWN      CLOUDY    70  64  81 E3        30.05S
SCRANTON       CLOUDY    72  63  73 W3        30.05S
$$

CTZ002-004>006-009-010-012-RIZ004-006-007-MAZ004-011-015-221600-
SOUTHERN NEW ENGLAND
 IN CT

CITY           SKY/WX    TMP DP  RH WIND       PRES   REMARKS
BRADLEY INTL   CLOUDY    68  60  75 N5        30.09R
HARTFORD       CLOUDY    68  60  75 N6        30.08R
DANBURY        CLOUDY    69  58  67 SE5       30.09S
WTRBRY/OXFORD  CLOUDY    68  57  68 E3        30.11R
BRIDGEPORT     CLOUDY    71  62  73 E10       30.08R
MERIDEN        CLOUDY    69  60  73 CALM      30.08R
NEW HAVEN      CLOUDY    72  60  66 E3        30.08R
CHESTER        CLOUDY    70  61  73 NE3       30.09R
GROTON         PTSUNNY   72  60  66 E10       30.06R
WILLIMANTIC    CLOUDY    69  59  70 E8        30.09R

 IN RI

CITY           SKY/WX    TMP DP  RH WIND       PRES   REMARKS
PROVIDENCE     PTSUNNY   70  62  76 N12       30.08S
BLOCK ISLAND   CLOUDY    66  61  82 E7        30.07R
WESTERLY       PTSUNNY   72  60  66 NE7       30.07R

 IN MA

CITY           SKY/WX    TMP DP  RH WIND       PRES   REMARKS
BOSTON         CLOUDY    69  65  86 E9        30.09S
WORCESTER      CLOUDY    62  60  93 NE6       30.11S
WESTFIELD      CLOUDY    66  61  84 N7        30.10R
PROVINCETOWN   PTSUNNY   72  63  73 MISG      30.08S
NANTUCKET      CLOUDY    70  61  73 E15       30.06S
$$

ANZ330-335-338-340-345-350-353-355-221600-
COASTAL MARINE OBSERVATIONS


STATION/POSITION TIME  SKY/WX   TEMP    WIND        PRES    VSBY  WAVE
                                AIR SEA DIR/SP/G                  HT/PER
                 (UTC)          (F)     (DEG/KT/KT) (MB)    (MI)  (FT/S)
NY HARB ENTRANCE NOT AVBL
4S FIRE IS       NOT AVBL
23SW MTP         1500            69 70              1017.5          4/ 7
HUDSON CANYON    1500            72 72   70/ 12/ 14 1016.5          3/ 8
EXECUTION ROCKS  1500            72 73   70/  8/ 10   N/A
WESTERN LI SOUND 1500            70      80/ 12/ 16   N/A           1/ 3
CENTRAL LI SOUND 1400            67 72   90/ 12/ 14   N/A           2/ 3
EASTERN LI SOUND 1400            71 69   60/ 10/ 12   N/A
ROBBINS REEF     1500            71     140/  7/  9   N/A
$$


>>>>>>>>>>>>>>>>>>>>>>>>>>>> KEY <<<<<<<<<<<<<<<<<<<<<<<<<<<
>                                                          <
>     SKY/WX - SKY CONDITION/PRESENT WEATHER               <
>     TMP    - TEMPERATURE IN FAHRENHEIT                   <
>     DP     - DEWPOINT IN FAHRENHEIT                      <
>     RH     - RELATIVE HUMIDITY IN PERCENT                <
>     WIND   - DIRECTION AND SPEED IN MPH                  <
>     PRES   - MEAN SEA LEVEL PRESSURE IN INCHES OF HG     <
>     WCI    - WIND CHILL INDEX                            <
>     VSB    - VISIBILITY IN MILES                         <
>     HX     - HEAT INDEX                                  <
>     TC     - TEMPERATURE IN CELSIUS                      <
>     VRB    - VARIABLE WIND DIRECTION                     <
>                                                          <
>>>>>>>>>>>>>>>>>>>>>>>>>>>> KEY <<<<<<<<<<<<<<<<<<<<<<<<<<<





USA.gov is the U.S. government's official web portal to all federal, state and local government web resources and services.